TimeEDT,TemperatureF,Dew PointF,Humidity,Sea Level PressureIn,VisibilityMPH,Wind Direction,Wind SpeedMPH,Gust SpeedMPH,PrecipitationIn,Events,Conditions,WindDirDegrees,DateUTC
12:53 AM,68.0,63.0,84,30.11,10.0,SW,3.5,-,N/A,,Clear,230,2013-08-27 04:53:00
1:53 AM,66.9,62.1,84,30.09,10.0,WSW,3.5,-,N/A,,Clear,250,2013-08-27 05:53:00
2:53 AM,64.9,62.1,90,30.07,10.0,Calm,Calm,-,N/A,,Clear,0,2013-08-27 06:53:00
3:53 AM,66.0,63.0,90,30.07,8.0,Calm,Calm,-,N/A,,Clear,0,2013-08-27 07:53:00
4:53 AM,64.9,62.1,90,30.06,8.0,Calm,Calm,-,N/A,,Clear,0,2013-08-27 08:53:00
5:53 AM,63.0,61.0,93,30.06,6.0,Calm,Calm,-,N/A,,Clear,0,2013-08-27 09:53:00
6:53 AM,63.0,61.0,93,30.06,6.0,Calm,Calm,-,N/A,,Clear,0,2013-08-27 10:53:00
7:53 AM,64.9,62.1,90,30.07,7.0,Calm,Calm,-,N/A,,Clear,0,2013-08-27 11:53:00
8:53 AM,68.0,64.0,87,30.07,10.0,Calm,Calm,-,N/A,,Clear,0,2013-08-27 12:53:00
9:53 AM,73.9,64.9,73,30.06,10.0,West,3.5,-,N/A,,Clear,270,2013-08-27 13:53:00
10:53 AM,79.0,64.9,62,30.06,10.0,Variable,3.5,-,N/A,,Clear,0,2013-08-27 14:53:00
11:53 AM,82.0,64.9,56,30.05,10.0,Variable,3.5,-,N/A,,Clear,0,2013-08-27 15:53:00
12:53 PM,84.0,66.0,55,30.03,10.0,West,8.1,-,N/A,,Clear,270,2013-08-27 16:53:00
1:53 PM,84.9,66.0,53,30.02,10.0,WNW,5.8,-,N/A,,Clear,290,2013-08-27 17:53:00
2:53 PM,86.0,64.9,49,30.00,10.0,West,4.6,-,N/A,,Partly Cloudy,280,2013-08-27 18:53:00
3:53 PM,86.0,64.9,49,29.98,10.0,West,4.6,-,N/A,,Scattered Clouds,270,2013-08-27 19:53:00
4:53 PM,86.0,66.0,51,29.97,10.0,WNW,5.8,-,N/A,,Overcast,300,2013-08-27 20:53:00
5:53 PM,84.9,66.9,55,29.98,10.0,NW,5.8,-,N/A,,Partly Cloudy,310,2013-08-27 21:53:00
6:53 PM,82.0,66.9,60,29.98,8.0,NNW,3.5,-,N/A,,Overcast,340,2013-08-27 22:53:00
7:53 PM,78.1,68.0,71,29.98,7.0,Calm,Calm,-,N/A,,Clear,0,2013-08-27 23:53:00
8:53 PM,77.0,68.0,74,29.99,8.0,Calm,Calm,-,N/A,,Clear,0,2013-08-28 00:53:00
9:53 PM,75.0,68.0,79,29.99,7.0,Calm,Calm,-,N/A,,Clear,0,2013-08-28 01:53:00
10:53 PM,73.0,68.0,84,30.00,7.0,North,3.5,-,N/A,,Clear,350,2013-08-28 02:53:00
11:53 PM,73.0,68.0,84,29.99,7.0,West,3.5,-,N/A,,Clear,270,2013-08-28 03:53:00